YCFSYBCG

Guest
Details From YCFS - Coffs Harbour
To YBCG - Gold Coast International
Flight Number -
Tags generated
Created
Modified
Stats Distance 132 nm / 244 km
Max Altitude 8,600 ft / 2,621 m
Waypoints 3
Social Downloads 0
Likes 0
Share VATSIM

Download

Looking for another format? Having issues loading an existing format? Contact us
Advertisement - Login to hide

Notes

Basic altitude profile: - Ascent Rate: 1500ft/min - Ascent Speed: 80kts - Cruise Altitude: 5000ft - Cruise Speed: 110kts - Descent Rate: 500ft/min - Descent Speed: 110kts Options: - Use NATs: yes - Use PACOTS: yes - Use low airways: yes - Use high airways: no

Route

YCFS BERNI YBCG

ID Type Via Altitude Latitude Longitude Leg Dist Tot Dist Heading (true) Name
O YCFS APT - 0 ft / 0 m -30.32443˚ 153.11596˚ - 0 nm - Coffs Harbour
BERNI FIX - 8,600 ft / 2,621 m -28.83833˚ 153.46528˚ 91 nm 91 nm 12° / 11° -
O YBCG APT - 0 ft / 0 m -28.16604˚ 153.50616˚ 40 nm 131 nm 3° / 3° Gold Coast International

Altitude Profile

Advertisement - Login to hide

YCFS

Details ICAO YCFS
Name Coffs Harbour
Region Australia
Timezone Australia/Sydney (UTC+10.0)
Stats Elevation 18 ft / 5 m (AMSL)
Location -30.324426° 153.115959°
Runways 2
Magnetic Variation 11.920° E

METAR

YCFS 231700Z AUTO 29004KT 4400 // NCD 09/08 Q1022

Decode

TAF

TAF AMD YCFS 231249Z 2312/2412 21006KT 9999 -SHRA SCT020 BKN050 BECMG 2312/2314 25005KT 9999 SCT020 SCT030 FM232300 17005KT 9999 SCT040 PROB30 2312/2321 0500 FG

Decode

Departure Runways

ID Width Length Bearing (true) Bearing (mag) Surface Threshold Offset Overrun Length
03 148 ft / 45 m 6,832 ft / 2,082 m 40.57° 28.65° Asphalt 0 ft / 0 m 0 ft / 0 m
10 59 ft / 18 m 2,792 ft / 851 m 107.17° 95.25° Asphalt 262 ft / 80 m 0 ft / 0 m
21 148 ft / 45 m 6,832 ft / 2,082 m 220.57° 208.65° Asphalt 0 ft / 0 m 0 ft / 0 m
28 59 ft / 18 m 2,792 ft / 851 m 287.16° 275.24° Asphalt 66 ft / 20 m 0 ft / 0 m

YBCG

Details ICAO YBCG (OOL)
Name Gold Coast International
Region Australia
Timezone Australia/Brisbane (UTC+10.0)
Stats Elevation 20 ft / 6 m (AMSL)
Location -28.166035° 153.506155°
Runways 2
Magnetic Variation 11.333° E

METAR

YBCG 231700Z AUTO 19005KT 9999 // NCD 16/13 Q1022 RF00.0/000.0

Decode

TAF

TAF YBCG 231109Z 2312/2412 19007KT 9999 -SHRA BKN030 FM231800 22007KT 9999 SCT030 FM240100 14010KT 9999 FEW040 FM240900 20007KT 9999 FEW025

Decode

Destination Runways

ID Width Length Bearing (true) Bearing (mag) Surface Threshold Offset Overrun Length
14 148 ft / 45 m 7,687 ft / 2,343 m 150.04° 138.71° Asphalt 0 ft / 0 m 394 ft / 120 m
17 59 ft / 18 m 1,911 ft / 582 m 184.00° 172.67° Asphalt 0 ft / 0 m 0 ft / 0 m
32 148 ft / 45 m 7,687 ft / 2,343 m 330.04° 318.71° Asphalt 0 ft / 0 m 394 ft / 120 m
35 59 ft / 18 m 1,911 ft / 582 m 4.00° 352.67° Asphalt 0 ft / 0 m 0 ft / 0 m

Popular Alternatives